Location: Fort Wayne
(41.1310°N, 85.1290°W)
Time: 20:16:25
(UTC-04:00)

OPAL - Visible Passes

Search period start: 22 September 2014 00:00
Search period end: 02 October 2014 00:00
Orbit: 744 x 796 km, 100.2° (Epoch: 22 September)

Date Brightness Start Highest point End Pass type
(mag) Time Alt. Az. Time Alt. Az. Time Alt. Az.
22 Sep 10.3 04:07:03 10° E 04:10:08 16° ENE 04:13:13 10° NNE visible
22 Sep 7.4 05:43:13 10° S 05:48:23 72° WSW 05:53:38 10° NNW visible
23 Sep 8.2 05:08:12 10° SE 05:13:15 54° ENE 05:18:20 10° N visible
23 Sep 8.8 06:48:49 10° SW 06:52:25 19° W 06:56:04 10° NW visible
24 Sep 9.6 04:34:01 10° ESE 04:38:17 27° ENE 04:42:35 10° N visible
24 Sep 7.9 06:12:05 10° S 06:16:57 40° W 06:21:52 10° NNW visible
24 Sep 10.3 20:01:37 10° NNW 20:05:18 20° WNW 20:08:56 10° WSW visible
25 Sep 10.5 04:01:05 10° E 04:03:32 13° ENE 04:05:58 10° NNE visible
25 Sep 7.5 05:36:27 10° SSE 05:41:39 87° WSW 05:46:55 10° NNW visible
26 Sep 8.6 05:01:38 10° SE 05:06:34 45° ENE 05:11:31 10° N visible
26 Sep 8.6 06:41:32 10° SSW 06:45:36 23° W 06:49:42 10° NW visible
26 Sep 10.6 20:31:34 10° NW 20:33:23 12° NW 20:35:12 10° WNW visible
27 Sep 9.8 04:27:42 10° ESE 04:31:39 22° ENE 04:35:37 10° NNE visible
27 Sep 7.7 06:05:09 10° S 06:10:10 49° WSW 06:15:15 10° NNW visible
27 Sep 10.1 19:54:38 10° N 19:58:39 24° WNW 20:02:38 10° WSW visible
28 Sep 10.6 03:55:29 10° ENE 03:56:56 11° NE 03:58:24 10° NE visible
28 Sep 7.6 05:29:44 10° SSE 05:34:56 78° ENE 05:40:11 10° NNW visible
29 Sep 9.0 04:55:08 10° SE 04:59:53 37° ENE 05:04:40 10° N visible
29 Sep 8.4 06:34:23 10° SSW 06:38:48 28° W 06:43:15 10° NW visible
29 Sep 10.5 20:24:10 10° NNW 20:26:47 14° WNW 20:29:23 10° W visible
30 Sep 10.1 04:21:28 10° ESE 04:25:01 19° ENE 04:28:35 10° NNE visible
30 Sep 7.5 05:58:17 10° S 06:03:25 60° WSW 06:08:36 10° NNW visible
30 Sep 9.8 19:47:41 10° N 19:52:00 28° WNW 19:56:15 10° WSW visible
01 Oct 7.9 05:23:05 10° SSE 05:28:14 65° ENE 05:33:24 10° N visible
01 Oct 9.0 07:04:27 10° SW 07:07:31 16° W 07:10:36 10° WNW visible
